Temperature
12 12 12 12 12 12 11 11 11 11 11 11 11 11 11 11 11 11 11 11 11 10 10 10 10 10 10 10 10 10 10 10 10 10 10 10 10 10 10 10 10 10 10
12 12 12 11 11 11 11 11 11 11 11 11 11 11 10 10 10 10 10 10 10 10 10 10 10 10 10 10 10 10 10 10 10 10 10 10 9 9 9 10 10 9 9
11 11 11 11 11 11 11 11 11 11 10 10 10 10 10 10 10 10 10 10 10 10 10 10 10 10 10 9 9 9 9 9 9 9 9 9 9 9 9 9 9 9 9
11 11 11 11 11 11 11 11 10 10 10 10 10 10 10 10 10 10 10 10 10 10 10 10 10 10 9 9 9 9 9 9 9 9 9 9 9 9 9 9 9 9 9
11 11 11 11 11 11 11 10 10 10 10 10 10 10 9 9 9 9 9 9 9 9 9 9 9 9 9 9 9 9 9 9 9 9 8 8 8 8 8 8 8 8 8
10 11 11 11 10 10 10 10 10 9 9 9 9 9 9 9 9 9 9 9 9 9 9 9 9 9 9 9 8 8 8 8 8 8 8 8 8 8 8 8 8 8 8
10 10 10 10 10 10 10 10 9 9 9 9 9 9 9 9 9 9 9 9 9 9 9 9 9 9 8 8 8 8 8 8 8 8 8 8 8 8 7 8 7 7 7
10 10 10 10 10 10 9 9 9 9 9 9 9 8 8 8 8 8 8 8 8 8 8 8 8 8 8 8 8 8 8 8 8 7 7 7 7 7 7 7 7 7 7
9 9 9 10 9 9 9 9 9 9 9 8 8 8 8 8 8 8 8 8 8 8 8 8 8 8 8 8 8 8 8 8 7 7 7 7 7 7 7 7 7 7 7
9 9 9 9 9 9 9 9 9 8 8 8 8 8 8 8 8 8 8 8 8 8 8 8 8 8 8 7 8 8 7 7 7 7 7 7 6 6 6 6 6 6 6
8 8 8 8 8 9 8 8 8 8 8 8 8 8 8 8 8 8 7 7 7 7 7 7 7 7 7 7 7 7 7 7 7 7 7 6 6 6 6 6 6 5 5
8 8 8 8 8 8 8 8 8 8 8 8 7 7 7 7 7 7 7 7 7 7 7 7 7 7 7 7 7 7 7 7 7 6 6 6 6 5 5 5 5 5 5
7 7 7 7 7 7 7 7 7 7 7 7 7 7 7 7 7 7 7 7 6 6 7 7 7 7 7 7 7 6 6 6 6 6 6 6 6 5 5 5 5 5 5
6 6 6 6 6 7 7 7 7 7 7 7 7 7 7 7 6 6 6 6 6 6 6 6 6 7 7 6 6 6 6 6 6 6 6 5 5 5 5 5 5 4 4
5 5 5 6 6 6 6 6 6 6 6 6 6 6 6 6 6 6 6 6 6 6 6 6 6 6 6 6 6 6 6 6 6 6 5 5 5 5 5 4 4 4 4
5 5 5 5 5 5 5 5 6 6 6 6 6 6 6 6 6 6 6 6 6 5 5 5 6 6 6 6 5 5 6 5 5 5 5 5 5 4 4 4 4 4 3
4 4 4 4 4 4 5 5 5 5 5 5 5 5 5 5 5 5 5 5 5 5 5 5 5 5 5 5 5 5 5 5 5 5 5 4 4 4 4 4 3 3 3
3 4 4 4 4 4 4 4 4 4 4 5 5 5 5 5 5 5 5 5 5 5 5 5 5 4 4 4 4 4 4 4 5 5 4 4 4 4 3 3 3 3 3
3 3 3 3 3 3 3 3 3 4 4 4 4 4 4 4 4 4 4 4 4 4 4 4 4 4 4 4 4 4 4 4 4 4 4 4 3 3 3 3 3 3 2
2 2 2 2 2 3 3 3 3 3 3 3 3 3 4 4 4 4 4 4 4 4 4 4 4 3 3 3 3 3 3 3 3 3 3 3 3 3 3 3 2 2 2
1 1 1 2 2 2 2 2 2 2 2 2 3 3 3 3 3 3 3 3 3 3 3 3 3 3 3 3 3 3 3 3 3 3 3 3 3 3 2 2 2 2 2
1 1 1 1 1 1 1 1 1 2 2 2 2 2 2 2 2 3 3 3 3 2 2 2 2 2 2 2 2 2 2 2 2 2 2 2 2 2 2 2 2 1 1
-0 0 0 0 0 0 1 1 1 1 1 1 1 1 2 2 2 2 2 2 2 2 2 2 2 2 2 2 2 2 2 2 1 2 1 2 2 2 2 1 1 1 1
-1 -1 -0 -0 -0 0 0 0 0 0 0 1 1 1 1 1 1 1 2 2 2 2 2 1 1 1 1 1 1 1 1 1 1 1 1 1 1 1 1 1 1 0 0
-1 -1 -1 -1 -1 -0 -0 -0 -0 -0 -0 0 0 0 0 1 1 1 1 1 1 1 1 1 1 1 1 1 1 1 1 0 0 0 0 -0 0 0 0 0 0 0 -0
-2 -2 -1 -1 -1 -1 -1 -1 -1 -1 -1 -1 -0 -0 -0 0 0 0 0 0 0 0 0 0 0 0 0 0 0 0 0 0 -0 -1 -0 -1 -1 -1 -1 -0 -0 -0 -1
Wind_Speed
4 5 6 6 6 7 6 4 4 5 5 6 6 7 8 9 10 10 9 10 9 9 8 8 8 9 10 11 11 11 11 11 11 11 11 11 11 12 12 12 12 12 12
5 5 5 5 5 6 6 6 5 4 4 5 6 7 7 8 10 10 9 9 9 8 7 7 7 8 9 10 10 10 10 9 9 9 10 10 10 11 11 11 11 11 12
6 5 5 4 5 6 6 6 6 5 4 5 5 6 6 6 8 9 9 8 8 8 7 6 6 7 8 8 8 8 8 8 8 8 8 8 8 9 9 9 10 10 10
6 6 4 4 6 6 5 4 4 3 3 3 3 3 5 5 6 7 8 8 8 7 6 6 7 7 7 7 7 7 7 6 7 7 7 7 7 7 7 8 8 9 9
5 5 4 5 6 5 4 3 3 3 4 4 3 3 3 4 4 5 6 7 7 7 7 7 8 7 6 5 5 5 5 5 5 5 5 5 5 5 6 6 7 7 7
5 5 5 5 5 3 3 4 4 3 4 4 4 4 3 3 4 4 4 6 6 6 6 7 7 6 5 4 4 4 4 4 4 3 3 3 3 4 4 5 6 6 6
5 5 4 4 4 3 3 4 4 4 3 3 3 2 2 2 2 2 3 4 4 5 5 6 6 5 4 4 3 3 3 2 2 1 1 2 2 2 2 3 4 5 5
4 4 4 3 3 3 3 4 4 3 2 2 3 3 1 1 1 1 1 2 3 4 4 4 4 4 4 4 3 3 2 1 1 1 0 1 1 1 1 2 3 3 4
3 3 3 3 3 3 3 3 4 4 3 2 1 2 3 3 1 0 1 1 2 2 2 3 3 3 3 4 4 3 2 2 2 2 2 2 2 2 2 2 2 3 3
3 3 3 3 2 2 3 3 3 3 4 3 1 0 1 2 3 1 1 1 2 2 2 2 3 3 3 4 4 4 4 4 4 3 3 3 3 2 2 2 3 4 4
2 2 2 2 2 2 2 2 2 3 3 4 3 2 1 0 1 2 2 2 1 2 2 2 3 3 4 4 5 5 4 5 5 4 4 4 4 4 4 4 4 4 4
1 1 2 2 2 1 2 2 2 3 3 3 3 2 3 2 2 2 2 3 3 2 2 2 3 4 5 5 6 6 6 6 5 5 5 5 4 4 5 5 5 4 5
1 1 1 1 1 1 1 2 2 2 3 3 4 3 3 3 2 2 2 2 2 1 2 2 4 5 6 6 6 7 7 7 7 6 6 6 5 5 5 6 6 5 6
1 2 2 2 1 2 2 2 2 2 2 3 3 3 2 3 2 2 3 3 1 1 2 3 2 5 6 7 7 7 7 8 8 7 7 6 6 5 5 5 6 6 6
0 1 1 2 2 2 1 2 2 2 2 3 3 3 3 3 2 2 2 3 4 3 4 3 3 3 6 7 7 7 7 9 9 9 8 7 7 6 6 6 6 6 6
1 0 1 1 2 2 2 2 2 2 3 3 3 4 3 3 3 3 3 3 3 3 3 2 3 3 5 5 6 6 7 8 9 9 9 9 8 8 8 8 8 7 7
1 1 1 2 2 2 2 2 3 3 3 3 3 4 4 3 3 3 3 3 3 3 3 2 1 1 2 3 4 5 6 6 7 9 10 10 9 9 9 9 9 8 8
1 1 1 1 2 2 2 3 3 3 3 3 4 4 4 3 4 3 3 4 3 3 3 4 2 2 3 3 3 3 4 6 7 9 10 10 10 10 10 10 9 9 8
2 1 1 2 2 2 2 2 3 3 3 3 3 4 4 4 4 4 4 4 3 3 3 4 3 2 2 2 1 2 3 4 6 8 9 10 11 11 10 10 10 9 9
2 2 1 2 2 2 2 2 2 2 3 3 3 3 4 4 5 5 5 4 3 3 3 3 3 2 2 2 2 2 2 3 3 5 6 8 9 10 11 11 11 10 10
3 2 1 1 2 2 3 3 2 2 2 2 3 3 4 4 5 4 4 4 4 4 3 3 4 3 3 2 3 2 3 3 3 3 2 4 6 6 8 10 11 11 11
3 2 2 2 2 2 4 4 3 2 3 3 4 3 3 4 5 6 6 6 6 6 5 5 4 5 5 4 3 3 2 2 3 2 2 4 4 4 6 7 10 11 11
3 2 1 2 2 3 4 5 4 3 3 4 4 4 3 3 4 3 4 5 5 6 7 6 6 6 5 5 5 4 4 4 5 3 2 4 3 4 6 8 10 10 9
2 2 2 2 2 3 4 5 5 3 3 4 4 4 4 4 4 4 3 3 4 4 5 5 5 5 5 4 5 5 5 3 3 2 2 3 3 4 5 7 9 9 9
2 2 2 2 1 2 3 3 3 2 3 3 3 3 3 4 5 5 4 4 3 3 4 6 7 6 6 6 5 2 3 2 3 3 2 3 3 3 3 4 7 8 9
2 2 2 2 1 2 2 3 3 2 2 2 2 2 4 4 5 5 4 4 5 4 2 2 2 3 4 5 6 5 5 4 3 3 2 2 2 1 3 3 3 6 7
Wind_Direction
133 133 133 135 139 140 140 140 135 125 119 119 109 97 93 98 103 99 100 100 99 99 99 98 99 97 94 91 87 83 78 75 72 68 66 65 63 60 57 54 51 48 47
126 129 125 126 125 134 141 136 121 110 98 95 93 94 91 96 105 108 109 105 100 98 103 103 100 103 101 96 91 86 81 78 74 70 68 66 64 61 57 54 50 47 46
119 120 119 118 128 131 131 123 112 104 96 92 87 88 86 93 103 110 114 115 109 99 95 105 109 109 107 103 98 92 85 80 75 71 70 67 64 59 55 52 49 45 41
114 114 115 116 126 123 116 112 115 110 99 95 88 78 78 81 93 108 113 113 112 109 103 107 111 111 110 106 104 100 90 82 76 71 69 67 66 59 55 52 47 43 39
112 116 115 122 126 119 114 114 112 123 117 103 97 81 71 69 69 90 106 109 113 118 119 122 117 112 110 108 109 104 97 90 82 72 71 69 65 58 51 47 45 44 39
119 114 115 122 124 116 119 118 114 107 120 122 106 86 74 73 67 68 93 109 119 124 127 129 125 121 118 114 114 112 106 100 93 80 70 60 61 56 47 43 42 39 38
118 115 115 123 125 126 135 134 128 121 124 124 109 93 52 58 80 75 85 102 114 126 127 128 131 135 135 131 125 119 120 120 110 89 54 38 33 33 36 36 29 30 31
111 120 113 124 128 135 135 136 130 130 137 156 143 135 135 9 354 76 87 111 121 128 128 139 140 138 142 144 156 158 148 168 189 204 312 317 317 316 348 9 6 17 17
105 114 119 117 128 139 157 155 148 146 161 194 171 154 157 189 179 217 203 152 135 125 141 149 156 155 152 156 163 182 198 222 231 238 251 268 271 283 300 342 350 345 346
116 109 118 125 133 138 159 174 161 157 158 178 214 222 152 138 146 168 228 194 166 171 175 175 171 173 179 178 178 188 212 220 227 239 246 256 269 278 299 316 318 323 325
110 122 126 130 134 137 151 162 163 171 169 173 175 183 186 85 138 153 189 203 204 203 184 177 177 186 190 191 187 191 206 217 226 238 247 254 262 275 285 296 304 311 312
104 112 125 119 132 134 149 168 174 182 184 174 172 170 170 170 183 173 180 191 203 211 193 181 188 199 198 202 200 199 205 213 224 239 246 252 260 272 280 284 291 296 302
143 189 141 116 112 136 156 154 158 184 182 177 184 188 187 191 176 170 167 190 201 205 187 204 208 204 203 205 204 205 213 220 228 237 247 252 258 269 277 280 284 287 289
179 182 173 159 161 163 172 163 159 189 181 184 191 189 189 195 178 177 176 170 201 235 216 221 218 203 205 206 211 212 219 223 228 233 241 250 254 261 271 276 283 287 287
158 171 174 172 174 174 172 164 181 195 191 195 196 195 198 201 191 191 184 176 179 216 236 221 211 209 202 205 211 213 218 223 226 230 238 247 250 257 262 266 274 279 282
18 195 192 194 186 182 183 178 192 190 198 207 198 195 206 210 202 194 196 199 191 195 226 227 212 208 190 201 210 212 221 229 231 234 238 245 247 253 257 260 261 267 273
347 280 229 214 212 201 187 185 203 195 203 212 211 207 213 210 206 204 202 202 203 190 223 258 234 196 184 192 206 219 226 228 231 236 239 244 247 249 253 257 258 263 268
328 297 267 241 236 225 204 199 204 202 205 213 216 215 221 216 217 210 203 204 208 199 202 231 242 215 212 205 202 221 232 236 235 238 240 245 248 248 250 253 255 260 264
319 292 252 254 249 235 223 217 209 204 208 215 214 215 222 216 225 217 210 207 210 213 205 209 227 224 226 215 214 249 250 249 246 242 242 247 248 249 250 251 252 255 259
302 278 248 241 243 243 241 236 219 218 219 219 217 214 219 223 227 218 213 210 205 203 202 204 215 221 228 217 194 229 260 253 261 246 242 249 250 250 251 252 252 252 255
298 274 256 249 238 240 241 234 222 226 228 232 235 225 221 230 235 229 220 208 203 208 210 212 218 223 222 212 219 219 239 260 269 239 246 258 250 249 252 253 251 251 254
286 269 253 248 247 253 246 249 245 235 235 237 240 238 232 234 240 239 233 225 213 211 216 219 229 228 227 219 214 219 223 246 266 246 237 267 244 245 250 245 250 253 256
279 274 269 253 250 250 249 253 249 245 241 243 242 241 242 238 240 245 238 232 232 228 223 223 228 233 230 221 208 216 227 234 246 236 221 259 250 256 257 255 258 254 256
272 270 263 255 254 263 260 253 245 245 250 248 245 241 237 234 235 228 228 227 230 235 233 232 232 232 233 224 214 214 215 235 267 263 214 244 253 260 269 259 255 253 260
291 283 274 268 253 268 274 270 262 246 243 244 245 245 238 234 236 228 223 229 238 252 251 240 237 235 233 232 223 205 209 218 258 260 225 222 251 275 273 259 250 254 261
293 297 300 291 266 265 282 278 268 243 240 245 243 243 246 249 242 233 221 219 229 239 243 258 257 252 244 237 233 224 215 218 237 248 225 211 234 272 285 269 254 257 264
Height
1545 1547 1549 1551 1553 1555 1557 1559 1560 1562 1564 1565 1566 1568 1569 1570 1570 1571 1572 1573 1574 1574 1575 1575 1576 1576 1576 1576 1576 1576 1576 1576 1576 1576 1576 1575 1575 1574 1574 1574 1573 1573 1572
1544 1546 1548 1550 1552 1554 1556 1558 1559 1561 1563 1564 1565 1567 1568 1569 1570 1571 1572 1572 1573 1574 1575 1575 1576 1576 1577 1577 1577 1577 1576 1576 1576 1576 1576 1575 1575 1574 1574 1574 1573 1573 1572
1543 1545 1546 1548 1550 1552 1554 1556 1558 1560 1562 1563 1564 1566 1567 1568 1569 1570 1571 1572 1572 1573 1574 1575 1575 1576 1576 1577 1577 1577 1576 1576 1576 1576 1576 1575 1575 1575 1574 1574 1573 1572 1572
1541 1543 1545 1547 1549 1550 1553 1555 1556 1558 1560 1561 1563 1565 1566 1567 1569 1569 1570 1571 1572 1572 1573 1574 1574 1575 1576 1576 1576 1576 1576 1576 1576 1576 1575 1575 1575 1575 1574 1574 1573 1572 1572
1540 1541 1543 1545 1547 1549 1551 1553 1555 1557 1558 1560 1562 1563 1565 1566 1567 1568 1569 1570 1570 1571 1572 1573 1573 1574 1575 1575 1576 1576 1576 1576 1575 1575 1575 1575 1575 1574 1574 1573 1573 1572 1571
1538 1539 1541 1543 1545 1547 1549 1551 1553 1555 1556 1558 1560 1561 1563 1564 1566 1567 1568 1568 1569 1570 1571 1572 1572 1573 1574 1574 1575 1575 1575 1575 1575 1575 1574 1574 1574 1574 1573 1573 1572 1571 1571
1535 1537 1539 1541 1543 1545 1547 1549 1551 1553 1554 1556 1558 1560 1561 1563 1564 1565 1566 1567 1568 1569 1569 1570 1571 1572 1572 1573 1573 1574 1574 1574 1574 1574 1573 1573 1573 1573 1572 1572 1571 1570 1570
1533 1535 1537 1539 1541 1543 1545 1547 1548 1550 1552 1554 1556 1557 1559 1562 1562 1563 1564 1565 1566 1567 1568 1568 1569 1570 1571 1571 1572 1572 1572 1572 1572 1572 1572 1572 1572 1571 1571 1570 1570 1569 1568
1530 1532 1534 1536 1538 1540 1542 1544 1546 1548 1549 1552 1554 1556 1557 1558 1559 1561 1562 1563 1564 1565 1566 1567 1567 1568 1569 1569 1570 1570 1570 1570 1570 1570 1570 1570 1570 1570 1569 1568 1568 1567 1567
1528 1530 1532 1534 1536 1538 1540 1542 1544 1546 1548 1549 1551 1553 1555 1555 1557 1557 1559 1560 1561 1562 1564 1564 1565 1566 1567 1567 1567 1567 1568 1568 1568 1568 1568 1568 1568 1567 1567 1566 1566 1565 1565
1525 1527 1529 1531 1533 1535 1537 1539 1541 1543 1545 1546 1548 1550 1552 1553 1554 1555 1556 1557 1559 1560 1561 1562 1563 1563 1564 1564 1564 1565 1565 1566 1566 1566 1566 1565 1565 1565 1564 1564 1563 1563 1562
1522 1524 1526 1527 1529 1532 1534 1536 1538 1540 1542 1543 1545 1547 1548 1550 1551 1552 1553 1554 1555 1557 1558 1558 1559 1560 1561 1561 1561 1562 1562 1563 1563 1563 1563 1562 1562 1562 1561 1561 1560 1560 1559
1519 1521 1523 1524 1526 1528 1530 1532 1534 1536 1538 1540 1541 1543 1545 1547 1548 1550 1551 1551 1552 1553 1554 1555 1556 1557 1557 1558 1558 1559 1559 1560 1560 1560 1559 1559 1559 1559 1558 1558 1557 1557 1556
1516 1518 1519 1521 1523 1525 1527 1528 1530 1532 1534 1536 1538 1540 1541 1543 1544 1546 1548 1549 1549 1550 1550 1551 1552 1553 1554 1554 1555 1555 1556 1556 1556 1556 1556 1556 1556 1555 1555 1554 1554 1553 1552
1513 1514 1516 1518 1520 1522 1523 1525 1526 1528 1530 1532 1534 1536 1537 1539 1540 1542 1544 1545 1547 1546 1547 1547 1548 1549 1550 1550 1551 1551 1551 1552 1552 1552 1552 1552 1552 1552 1551 1551 1550 1549 1548
1510 1511 1513 1515 1516 1518 1519 1521 1522 1524 1526 1528 1530 1532 1533 1535 1536 1538 1539 1541 1542 1543 1543 1543 1544 1545 1546 1546 1547 1547 1547 1548 1548 1548 1548 1548 1547 1547 1547 1547 1546 1545 1544
1507 1508 1510 1511 1513 1514 1516 1517 1518 1520 1522 1523 1525 1527 1529 1530 1531 1533 1534 1536 1537 1539 1539 1539 1540 1541 1542 1542 1543 1543 1543 1543 1543 1543 1543 1543 1543 1543 1543 1542 1541 1541 1540
1504 1505 1506 1508 1509 1510 1512 1513 1514 1516 1517 1519 1520 1522 1524 1526 1527 1528 1529 1531 1532 1534 1535 1535 1535 1536 1537 1538 1538 1538 1538 1538 1539 1539 1539 1539 1538 1538 1538 1537 1537 1536 1535
1501 1502 1502 1504 1505 1506 1508 1509 1510 1512 1513 1514 1516 1517 1519 1521 1522 1523 1524 1526 1527 1529 1529 1530 1530 1531 1532 1533 1533 1533 1534 1534 1534 1534 1534 1534 1534 1533 1533 1532 1532 1531 1530
1498 1498 1499 1500 1501 1502 1504 1505 1506 1507 1509 1510 1511 1513 1514 1516 1517 1518 1519 1520 1522 1523 1524 1525 1525 1526 1527 1528 1528 1528 1528 1529 1529 1529 1529 1529 1529 1529 1528 1527 1527 1526 1525
1494 1495 1496 1497 1498 1498 1500 1501 1501 1503 1504 1505 1506 1508 1509 1511 1512 1513 1514 1515 1517 1518 1519 1520 1520 1521 1522 1522 1523 1524 1524 1524 1524 1524 1524 1524 1524 1523 1523 1522 1521 1521 1520
1491 1491 1492 1493 1493 1494 1496 1496 1497 1498 1499 1500 1502 1503 1504 1506 1507 1508 1509 1510 1512 1513 1513 1514 1515 1516 1516 1517 1519 1519 1519 1519 1518 1519 1519 1518 1518 1517 1517 1517 1516 1516 1515
1487 1487 1488 1489 1489 1490 1491 1492 1493 1494 1495 1496 1497 1498 1499 1500 1502 1503 1504 1505 1506 1507 1509 1510 1510 1510 1511 1513 1514 1514 1514 1514 1513 1513 1514 1512 1513 1512 1512 1511 1511 1511 1510
1483 1483 1484 1485 1485 1486 1487 1487 1488 1489 1490 1491 1492 1493 1494 1495 1496 1498 1499 1499 1500 1501 1503 1504 1505 1505 1507 1508 1509 1509 1509 1509 1509 1509 1509 1507 1506 1506 1507 1506 1506 1505 1505
1479 1479 1480 1480 1481 1481 1482 1483 1484 1484 1485 1486 1487 1488 1489 1490 1491 1493 1494 1494 1494 1496 1497 1499 1500 1500 1501 1503 1504 1504 1503 1503 1502 1502 1503 1503 1501 1501 1500 1500 1500 1500 1500
1475 1475 1475 1476 1476 1477 1477 1478 1479 1480 1480 1481 1482 1483 1484 1485 1486 1487 1488 1489 1489 1490 1492 1493 1494 1495 1496 1497 1498 1498 1498 1498 1497 1497 1497 1498 1497 1496 1495 1494 1495 1495 1494